sat.trackr.live / text

‹ back to catalog

STARLINK-3538

NORAD 51996 · 2022-025AS

PAYLOAD ACTIVE UNKNOWN

§ Identity

Operator
Country
US
Launch date
2022-03-09
Launch site
AFETR
Launch vehicle
Mass (kg)
RCS (m²)

Purposes: comms

External: N2YO · Heavens-Above · Gunter

§ Orbital elements

Epoch: 2026-09-19T11:48:55.063872Z

Period
93.90 min
Inclination
53.1599°
Eccentricity
0.0001422
Mean motion
15.33548254 rev/d
Perigee alt
464.3 km
Apogee alt
466.2 km
Semi-major
6,843.4 km
B*
1.1619e-5
RAAN
214.5590°
Arg perigee
94.4786°
Mean anomaly
265.6379°
Rev number
25,037

§ Raw data

STARLINK-35381 51996U 22025AS  26262.49230398  .00000009  00000+0  11619-4 0  99972 51996  53.1599 214.5590 0001422  94.4786 265.6379 15.33548254250372

JSON: /api/v1/satellites/51996 · /tle

For live sub-satellite position, see the globe view (requires WebGL).

§ Visibility from observer

Set your observer location to see the next 7 days of passes ≥ 10°. The values pass through the URL so the page stays shareable.

No JS? Fill the form by hand. The geolocation button needs JavaScript.